This is the latest recevied weather packets stored in our database for station/object NY5V. If no packets are shown the sender has not sent any weather packets the latest 10 day(s).
| Time | Temp. | Humidity | Pressure | Rain* | Wind** | Luminosity | Snow |
|---|---|---|---|---|---|---|---|
| 1777409949 | 28.33° C | 74% | 1010.6 hPa | 0 mm | - | 90 W/m² | - |
| 1777409347 | 28.33° C | 77% | 1010.5 hPa | 0 mm | - | 117 W/m² | - |
| 1777408745 | 28.33° C | 77% | 1010.6 hPa | 0 mm | - | 138 W/m² | - |
| 1777408142 | 28.33° C | 76% | 1010.7 hPa | 0 mm | - | 141 W/m² | - |
| 1777407541 | 28.33° C | 76% | 1011.3 hPa | 0 mm | - | 173 W/m² | - |
| 1777406935 | 27.78° C | 76% | 1011.6 hPa | 0 mm | - | 160 W/m² | - |
| 1777406332 | 27.78° C | 77% | 1012.2 hPa | 0 mm | - | 120 W/m² | - |
| 1777405728 | 27.78° C | 75% | 1012.4 hPa | 0 mm | - | 173 W/m² | - |
| 1777405127 | 27.78° C | 78% | 1012.1 hPa | 0 mm | - | 192 W/m² | - |
| 1777404523 | 27.22° C | 77% | 1012.6 hPa | 0 mm | - | 180 W/m² | - |
| 1777403921 | 27.22° C | 77% | 1012.8 hPa | 0 mm | - | 142 W/m² | - |
| 1777403321 | 27.78° C | 79% | 1012.9 hPa | 0 mm | - | 151 W/m² | - |
| 1777402717 | 27.22° C | 79% | 1012.6 hPa | 0 mm | - | 126 W/m² | - |
| 1777402116 | 27.22° C | 78% | 1013.1 hPa | 0 mm | - | 140 W/m² | - |
| 1777401517 | 27.78° C | 78% | 1013.4 hPa | 0 mm | - | 187 W/m² | - |
| 1777400914 | 27.78° C | 78% | 1013.1 hPa | 0 mm | - | 135 W/m² | - |
| 1777400314 | 27.78° C | 78% | 1013.2 hPa | 0 mm | - | 182 W/m² | - |
| 1777399713 | 27.22° C | 80% | 1013.7 hPa | 0 mm | - | 101 W/m² | - |
| 1777399113 | 27.78° C | 77% | 1013.8 hPa | 0 mm | - | 139 W/m² | - |
| 1777398513 | 27.78° C | 76% | 1013.9 hPa | 0 mm | - | 331 W/m² | - |
| 1777397912 | 27.78° C | 76% | 1014 hPa | 0 mm | - | 202 W/m² | - |
| 1777397310 | 27.78° C | 78% | 1014 hPa | 0 mm | - | 115 W/m² | - |
| 1777396710 | 27.22° C | 81% | 1014.3 hPa | 0 mm | - | 234 W/m² | - |
| 1777396109 | 26.67° C | 80% | 1014.4 hPa | 0 mm | - | 111 W/m² | - |
| 1777395506 | 27.22° C | 82% | 1014.4 hPa | 0 mm | - | 134 W/m² | - |
* Rain latest hour (hover to see other rain measurements)
** Current wind speed in m/s (hover to see current wind gust speed)